owner,sensor,date,latitude,longitude,vertical_datum,sea_water_practical_salinity,qcFlag 
TABS,ioos:station:wmo:42050:1,2014-06-01T00:00:00Z,28.8425,-94.2433,2.0,30.6665,11111222 
TABS,ioos:station:wmo:42050:1,2014-06-01T00:30:00Z,28.8425,-94.2433,2.0,30.7453,11111222 
TABS,ioos:station:wmo:42050:1,2014-06-01T01:00:00Z,28.8425,-94.2433,2.0,30.7785,11111222 
TABS,ioos:station:wmo:42050:1,2014-06-01T01:30:00Z,28.8425,-94.2433,2.0,30.8441,11111222 
TABS,ioos:station:wmo:42050:1,2014-06-01T02:00:00Z,28.8425,-94.2433,2.0,31.1145,11111222 
TABS,ioos:station:wmo:42050:1,2014-06-01T02:30:00Z,28.8425,-94.2433,2.0,31.3163,11111222 
TABS,ioos:station:wmo:42050:1,2014-06-01T03:00:00Z,28.8425,-94.2433,2.0,31.5551,11111222 
TABS,ioos:station:wmo:42050:1,2014-06-01T03:30:00Z,28.8425,-94.2433,2.0,31.7792,11111222 
TABS,ioos:station:wmo:42050:1,2014-06-01T04:00:00Z,28.8425,-94.2433,2.0,31.9661,11111222 
TABS,ioos:station:wmo:42050:1,2014-06-01T04:30:00Z,28.8425,-94.2433,2.0,32.0359,11111222 
TABS,ioos:station:wmo:42050:1,2014-06-01T05:00:00Z,28.8425,-94.2433,2.0,31.9617,11111222 
TABS,ioos:station:wmo:42050:1,2014-06-01T05:30:00Z,28.8425,-94.2433,2.0,31.8699,11111222 
TABS,ioos:station:wmo:42050:1,2014-06-01T06:00:00Z,28.8425,-94.2433,2.0,31.9351,11111222 
TABS,ioos:station:wmo:42050:1,2014-06-01T06:30:00Z,28.8425,-94.2433,2.0,31.7477,11111222 
TABS,ioos:station:wmo:42050:1,2014-06-01T07:00:00Z,28.8425,-94.2433,2.0,31.7494,11111222 
TABS,ioos:station:wmo:42050:1,2014-06-01T07:30:00Z,28.8425,-94.2433,2.0,31.7451,11111222 
TABS,ioos:station:wmo:42050:1,2014-06-01T08:00:00Z,28.8425,-94.2433,2.0,31.856,11111222 
TABS,ioos:station:wmo:42050:1,2014-06-01T08:30:00Z,28.8425,-94.2433,2.0,31.9466,11111222 
TABS,ioos:station:wmo:42050:1,2014-06-01T09:00:00Z,28.8425,-94.2433,2.0,32.0745,11111222 
TABS,ioos:station:wmo:42050:1,2014-06-01T09:30:00Z,28.8425,-94.2433,2.0,32.2174,11111222 
TABS,ioos:station:wmo:42050:1,2014-06-01T10:00:00Z,28.8425,-94.2433,2.0,32.2865,11111222 
TABS,ioos:station:wmo:42050:1,2014-06-01T10:30:00Z,28.8425,-94.2433,2.0,32.3863,11111222 
TABS,ioos:station:wmo:42050:1,2014-06-01T11:00:00Z,28.8425,-94.2433,2.0,32.4996,11111222 
TABS,ioos:station:wmo:42050:1,2014-06-01T11:30:00Z,28.8425,-94.2433,2.0,32.6048,11111222 
TABS,ioos:station:wmo:42050:1,2014-06-01T12:00:00Z,28.8425,-94.2433,2.0,32.6412,11111222 
TABS,ioos:station:wmo:42050:1,2014-06-01T12:30:00Z,28.8425,-94.2433,2.0,32.7421,11111222 
TABS,ioos:station:wmo:42050:1,2014-06-01T13:00:00Z,28.8425,-94.2433,2.0,32.8113,11111222 
TABS,ioos:station:wmo:42050:1,2014-06-01T13:30:00Z,28.8425,-94.2433,2.0,32.8415,11111222 
TABS,ioos:station:wmo:42050:1,2014-06-01T14:00:00Z,28.8425,-94.2433,2.0,32.8429,11111222 
TABS,ioos:station:wmo:42050:1,2014-06-01T14:30:00Z,28.8425,-94.2433,2.0,32.8328,11111222 
TABS,ioos:station:wmo:42050:1,2014-06-01T15:00:00Z,28.8425,-94.2433,2.0,32.82,11111222 
TABS,ioos:station:wmo:42050:1,2014-06-01T15:30:00Z,28.8425,-94.2433,2.0,32.8006,11111222 
TABS,ioos:station:wmo:42050:1,2014-06-01T16:00:00Z,28.8425,-94.2433,2.0,32.8031,11111222 
TABS,ioos:station:wmo:42050:1,2014-06-01T16:30:00Z,28.8425,-94.2433,2.0,32.7922,11111222 
TABS,ioos:station:wmo:42050:1,2014-06-01T17:00:00Z,28.8425,-94.2433,2.0,32.7867,11111222 
TABS,ioos:station:wmo:42050:1,2014-06-01T17:30:00Z,28.8425,-94.2433,2.0,32.7705,11111222 
TABS,ioos:station:wmo:42050:1,2014-06-01T18:00:00Z,28.8425,-94.2433,2.0,32.7585,11111222 
TABS,ioos:station:wmo:42050:1,2014-06-01T18:30:00Z,28.8425,-94.2433,2.0,32.7402,11111222 
TABS,ioos:station:wmo:42050:1,2014-06-01T19:00:00Z,28.8425,-94.2433,2.0,32.7337,11111222 
TABS,ioos:station:wmo:42050:1,2014-06-01T19:30:00Z,28.8425,-94.2433,2.0,32.7315,11111222 
TABS,ioos:station:wmo:42050:1,2014-06-01T20:00:00Z,28.8425,-94.2433,2.0,32.7317,11111222 
TABS,ioos:station:wmo:42050:1,2014-06-01T22:30:00Z,28.8425,-94.2433,2.0,32.7356,11111222 
TABS,ioos:station:wmo:42050:1,2014-06-01T23:00:00Z,28.8425,-94.2433,2.0,32.7379,11111222 
TABS,ioos:station:wmo:42050:1,2014-06-01T23:30:00Z,28.8425,-94.2433,2.0,32.7408,11111222 
TABS,ioos:station:wmo:42050:1,2014-06-02T00:00:00Z,28.8425,-94.2433,2.0,32.742,11111222 
TABS,ioos:station:wmo:42050:1,2014-06-02T00:30:00Z,28.8425,-94.2433,2.0,32.7503,11111222 
TABS,ioos:station:wmo:42050:1,2014-06-02T01:00:00Z,28.8425,-94.2433,2.0,32.7546,11111222 
TABS,ioos:station:wmo:42050:1,2014-06-02T01:30:00Z,28.8425,-94.2433,2.0,32.7569,11111222 
TABS,ioos:station:wmo:42050:1,2014-06-02T02:00:00Z,28.8425,-94.2433,2.0,32.7664,11111222 
TABS,ioos:station:wmo:42050:1,2014-06-02T02:30:00Z,28.8425,-94.2433,2.0,32.7733,11111222 
TABS,ioos:station:wmo:42050:1,2014-06-02T03:00:00Z,28.8425,-94.2433,2.0,32.7631,11111222 
TABS,ioos:station:wmo:42050:1,2014-06-02T03:30:00Z,28.8425,-94.2433,2.0,32.7612,11111222 
TABS,ioos:station:wmo:42050:1,2014-06-02T04:00:00Z,28.8425,-94.2433,2.0,32.6968,11111222 
TABS,ioos:station:wmo:42050:1,2014-06-02T04:30:00Z,28.8425,-94.2433,2.0,32.6575,11111222 
TABS,ioos:station:wmo:42050:1,2014-06-02T05:00:00Z,28.8425,-94.2433,2.0,32.5966,11111222 
TABS,ioos:station:wmo:42050:1,2014-06-02T05:30:00Z,28.8425,-94.2433,2.0,32.5493,11111222 
TABS,ioos:station:wmo:42050:1,2014-06-02T06:00:00Z,28.8425,-94.2433,2.0,32.5547,11111222 
TABS,ioos:station:wmo:42050:1,2014-06-02T06:30:00Z,28.8425,-94.2433,2.0,32.6529,11111222 
TABS,ioos:station:wmo:42050:1,2014-06-02T07:00:00Z,28.8425,-94.2433,2.0,32.6779,11111222 
TABS,ioos:station:wmo:42050:1,2014-06-02T07:30:00Z,28.8425,-94.2433,2.0,32.6872,11111222 
TABS,ioos:station:wmo:42050:1,2014-06-02T08:00:00Z,28.8425,-94.2433,2.0,32.7204,11111222 
TABS,ioos:station:wmo:42050:1,2014-06-02T08:30:00Z,28.8425,-94.2433,2.0,32.757,11111222 
TABS,ioos:station:wmo:42050:1,2014-06-02T09:00:00Z,28.8425,-94.2433,2.0,32.7693,11111222 
TABS,ioos:station:wmo:42050:1,2014-06-02T09:30:00Z,28.8425,-94.2433,2.0,32.772,11111222 
TABS,ioos:station:wmo:42050:1,2014-06-02T10:00:00Z,28.8425,-94.2433,2.0,32.7728,11111222 
TABS,ioos:station:wmo:42050:1,2014-06-02T10:30:00Z,28.8425,-94.2433,2.0,32.7766,11111222 
TABS,ioos:station:wmo:42050:1,2014-06-02T11:00:00Z,28.8425,-94.2433,2.0,32.7808,11111222 
TABS,ioos:station:wmo:42050:1,2014-06-02T11:30:00Z,28.8425,-94.2433,2.0,32.7905,11111222 
TABS,ioos:station:wmo:42050:1,2014-06-02T12:00:00Z,28.8425,-94.2433,2.0,32.7932,11111222 
TABS,ioos:station:wmo:42050:1,2014-06-02T12:30:00Z,28.8425,-94.2433,2.0,32.7974,11111222 
TABS,ioos:station:wmo:42050:1,2014-06-02T13:00:00Z,28.8425,-94.2433,2.0,32.8001,11111222 
TABS,ioos:station:wmo:42050:1,2014-06-02T13:30:00Z,28.8425,-94.2433,2.0,32.8028,11111222 
TABS,ioos:station:wmo:42050:1,2014-06-02T14:00:00Z,28.8425,-94.2433,2.0,32.8037,11111222 
TABS,ioos:station:wmo:42050:1,2014-06-02T14:30:00Z,28.8425,-94.2433,2.0,32.8052,11111222 
TABS,ioos:station:wmo:42050:1,2014-06-02T15:00:00Z,28.8425,-94.2433,2.0,32.808,11111222 
TABS,ioos:station:wmo:42050:1,2014-06-02T15:30:00Z,28.8425,-94.2433,2.0,32.8112,11111222 
TABS,ioos:station:wmo:42050:1,2014-06-02T16:00:00Z,28.8425,-94.2433,2.0,32.8122,11111222 
TABS,ioos:station:wmo:42050:1,2014-06-02T16:30:00Z,28.8425,-94.2433,2.0,32.8125,11111222 
TABS,ioos:station:wmo:42050:1,2014-06-02T17:00:00Z,28.8425,-94.2433,2.0,32.8135,11111222 
TABS,ioos:station:wmo:42050:1,2014-06-02T17:30:00Z,28.8425,-94.2433,2.0,32.8138,11111222 
TABS,ioos:station:wmo:42050:1,2014-06-02T18:00:00Z,28.8425,-94.2433,2.0,32.8137,11111222 
TABS,ioos:station:wmo:42050:1,2014-06-02T18:30:00Z,28.8425,-94.2433,2.0,32.8138,11111222 
TABS,ioos:station:wmo:42050:1,2014-06-02T19:00:00Z,28.8425,-94.2433,2.0,32.8163,11111222 
TABS,ioos:station:wmo:42050:1,2014-06-02T19:30:00Z,28.8425,-94.2433,2.0,32.817,11111222 
TABS,ioos:station:wmo:42050:1,2014-06-02T20:00:00Z,28.8425,-94.2433,2.0,32.8168,11111222 
TABS,ioos:station:wmo:42050:1,2014-06-02T20:30:00Z,28.8425,-94.2433,2.0,32.8173,11111222 
TABS,ioos:station:wmo:42050:1,2014-06-02T21:00:00Z,28.8425,-94.2433,2.0,32.8179,11111222 
TABS,ioos:station:wmo:42050:1,2014-06-02T21:30:00Z,28.8425,-94.2433,2.0,32.8172,11111222 
TABS,ioos:station:wmo:42050:1,2014-06-02T22:00:00Z,28.8425,-94.2433,2.0,32.8176,11111222 
TABS,ioos:station:wmo:42050:1,2014-06-02T22:30:00Z,28.8425,-94.2433,2.0,32.814,11111222 
TABS,ioos:station:wmo:42050:1,2014-06-02T23:00:00Z,28.8425,-94.2433,2.0,32.8128,11111222 
TABS,ioos:station:wmo:42050:1,2014-06-02T23:30:00Z,28.8425,-94.2433,2.0,32.8139,11111222 
TABS,ioos:station:wmo:42050:1,2014-06-03T00:00:00Z,28.8425,-94.2433,2.0,32.8076,11111222 
TABS,ioos:station:wmo:42050:1,2014-06-03T00:30:00Z,28.8425,-94.2433,2.0,32.8106,11111222 
TABS,ioos:station:wmo:42050:1,2014-06-03T01:00:00Z,28.8425,-94.2433,2.0,32.8127,11111222 
TABS,ioos:station:wmo:42050:1,2014-06-03T01:30:00Z,28.8425,-94.2433,2.0,32.8194,11111222 
TABS,ioos:station:wmo:42050:1,2014-06-03T02:00:00Z,28.8425,-94.2433,2.0,32.7905,11111222 
TABS,ioos:station:wmo:42050:1,2014-06-03T02:30:00Z,28.8425,-94.2433,2.0,32.7696,11111222 
TABS,ioos:station:wmo:42050:1,2014-06-03T03:00:00Z,28.8425,-94.2433,2.0,32.6778,11111222 
TABS,ioos:station:wmo:42050:1,2014-06-03T03:30:00Z,28.8425,-94.2433,2.0,32.6408,11111222 
TABS,ioos:station:wmo:42050:1,2014-06-03T04:00:00Z,28.8425,-94.2433,2.0,32.7049,11111222 
TABS,ioos:station:wmo:42050:1,2014-06-03T04:30:00Z,28.8425,-94.2433,2.0,32.7582,11111222 
TABS,ioos:station:wmo:42050:1,2014-06-03T05:00:00Z,28.8425,-94.2433,2.0,32.799,11111222 
TABS,ioos:station:wmo:42050:1,2014-06-03T05:30:00Z,28.8425,-94.2433,2.0,32.7818,11111222 
TABS,ioos:station:wmo:42050:1,2014-06-03T06:00:00Z,28.8425,-94.2433,2.0,32.8028,11111222 
TABS,ioos:station:wmo:42050:1,2014-06-03T06:30:00Z,28.8425,-94.2433,2.0,32.8064,11111222 
TABS,ioos:station:wmo:42050:1,2014-06-03T07:00:00Z,28.8425,-94.2433,2.0,32.8128,11111222 
TABS,ioos:station:wmo:42050:1,2014-06-03T07:30:00Z,28.8425,-94.2433,2.0,32.8196,11111222 
TABS,ioos:station:wmo:42050:1,2014-06-03T08:00:00Z,28.8425,-94.2433,2.0,32.8212,11111222 
TABS,ioos:station:wmo:42050:1,2014-06-03T08:30:00Z,28.8425,-94.2433,2.0,32.8235,11111222 
TABS,ioos:station:wmo:42050:1,2014-06-03T09:00:00Z,28.8425,-94.2433,2.0,32.8246,11111222 
TABS,ioos:station:wmo:42050:1,2014-06-03T09:30:00Z,28.8425,-94.2433,2.0,32.8253,11111222 
TABS,ioos:station:wmo:42050:1,2014-06-03T10:00:00Z,28.8425,-94.2433,2.0,32.8269,11111222 
TABS,ioos:station:wmo:42050:1,2014-06-03T10:30:00Z,28.8425,-94.2433,2.0,32.8229,11111222 
TABS,ioos:station:wmo:42050:1,2014-06-03T11:00:00Z,28.8425,-94.2433,2.0,32.8223,11111222 
TABS,ioos:station:wmo:42050:1,2014-06-03T11:30:00Z,28.8425,-94.2433,2.0,32.8269,11111222 
TABS,ioos:station:wmo:42050:1,2014-06-03T12:00:00Z,28.8425,-94.2433,2.0,32.8247,11111222 
TABS,ioos:station:wmo:42050:1,2014-06-03T12:30:00Z,28.8425,-94.2433,2.0,32.8243,11111222 
TABS,ioos:station:wmo:42050:1,2014-06-03T13:00:00Z,28.8425,-94.2433,2.0,32.8282,11111222 
TABS,ioos:station:wmo:42050:1,2014-06-03T13:30:00Z,28.8425,-94.2433,2.0,32.8317,11111222 
TABS,ioos:station:wmo:42050:1,2014-06-03T14:00:00Z,28.8425,-94.2433,2.0,32.8367,11111222 
TABS,ioos:station:wmo:42050:1,2014-06-03T14:30:00Z,28.8425,-94.2433,2.0,32.8399,11111222 
TABS,ioos:station:wmo:42050:1,2014-06-03T15:00:00Z,28.8425,-94.2433,2.0,32.8415,11111222 
TABS,ioos:station:wmo:42050:1,2014-06-03T15:30:00Z,28.8425,-94.2433,2.0,32.8428,11111222 
TABS,ioos:station:wmo:42050:1,2014-06-03T16:00:00Z,28.8425,-94.2433,2.0,32.8447,11111222 
TABS,ioos:station:wmo:42050:1,2014-06-03T16:30:00Z,28.8425,-94.2433,2.0,32.8433,11111222 
TABS,ioos:station:wmo:42050:1,2014-06-03T17:00:00Z,28.8425,-94.2433,2.0,32.8434,11111222 
TABS,ioos:station:wmo:42050:1,2014-06-03T17:30:00Z,28.8425,-94.2433,2.0,32.8416,11111222 
TABS,ioos:station:wmo:42050:1,2014-06-03T18:00:00Z,28.8425,-94.2433,2.0,32.8453,11111222 
TABS,ioos:station:wmo:42050:1,2014-06-03T18:30:00Z,28.8425,-94.2433,2.0,32.8456,11111222 
TABS,ioos:station:wmo:42050:1,2014-06-03T19:00:00Z,28.8425,-94.2433,2.0,32.8458,11111222 
TABS,ioos:station:wmo:42050:1,2014-06-03T19:30:00Z,28.8425,-94.2433,2.0,32.8435,11111222 
TABS,ioos:station:wmo:42050:1,2014-06-03T20:00:00Z,28.8425,-94.2433,2.0,32.8448,11111222 
TABS,ioos:station:wmo:42050:1,2014-06-03T20:30:00Z,28.8425,-94.2433,2.0,32.8451,11111222 
TABS,ioos:station:wmo:42050:1,2014-06-03T21:00:00Z,28.8425,-94.2433,2.0,32.8443,11111222 
TABS,ioos:station:wmo:42050:1,2014-06-03T21:30:00Z,28.8425,-94.2433,2.0,32.8453,11111222 
TABS,ioos:station:wmo:42050:1,2014-06-03T22:00:00Z,28.8425,-94.2433,2.0,32.8474,11111222 
TABS,ioos:station:wmo:42050:1,2014-06-03T22:30:00Z,28.8425,-94.2433,2.0,32.8469,11111222 
TABS,ioos:station:wmo:42050:1,2014-06-03T23:00:00Z,28.8425,-94.2433,2.0,32.8486,11111222 
TABS,ioos:station:wmo:42050:1,2014-06-03T23:30:00Z,28.8425,-94.2433,2.0,32.8552,11111222 
TABS,ioos:station:wmo:42050:1,2014-06-04T00:00:00Z,28.8425,-94.2433,2.0,32.8524,11111222 
TABS,ioos:station:wmo:42050:1,2014-06-04T00:30:00Z,28.8425,-94.2433,2.0,32.8509,11111222 
TABS,ioos:station:wmo:42050:1,2014-06-04T01:00:00Z,28.8425,-94.2433,2.0,32.8479,11111222 
TABS,ioos:station:wmo:42050:1,2014-06-04T01:30:00Z,28.8425,-94.2433,2.0,32.8466,11111222 
TABS,ioos:station:wmo:42050:1,2014-06-04T02:00:00Z,28.8425,-94.2433,2.0,32.8429,11111222 
TABS,ioos:station:wmo:42050:1,2014-06-04T02:30:00Z,28.8425,-94.2433,2.0,32.8437,11111222 
TABS,ioos:station:wmo:42050:1,2014-06-04T03:00:00Z,28.8425,-94.2433,2.0,32.8497,11111222 
TABS,ioos:station:wmo:42050:1,2014-06-04T03:30:00Z,28.8425,-94.2433,2.0,32.8533,11111222 
TABS,ioos:station:wmo:42050:1,2014-06-04T04:00:00Z,28.8425,-94.2433,2.0,32.8614,11111222 
TABS,ioos:station:wmo:42050:1,2014-06-04T04:30:00Z,28.8425,-94.2433,2.0,32.8724,11111222 
TABS,ioos:station:wmo:42050:1,2014-06-04T05:00:00Z,28.8425,-94.2433,2.0,32.8817,11111222 
TABS,ioos:station:wmo:42050:1,2014-06-04T05:30:00Z,28.8425,-94.2433,2.0,32.876,11111222 
TABS,ioos:station:wmo:42050:1,2014-06-04T06:00:00Z,28.8425,-94.2433,2.0,32.8678,11111222 
TABS,ioos:station:wmo:42050:1,2014-06-04T06:30:00Z,28.8425,-94.2433,2.0,32.8724,11111222 
TABS,ioos:station:wmo:42050:1,2014-06-04T07:00:00Z,28.8425,-94.2433,2.0,32.8741,11111222 
TABS,ioos:station:wmo:42050:1,2014-06-04T07:30:00Z,28.8425,-94.2433,2.0,32.8738,11111222 
TABS,ioos:station:wmo:42050:1,2014-06-04T08:00:00Z,28.8425,-94.2433,2.0,32.88,11111222 
TABS,ioos:station:wmo:42050:1,2014-06-04T08:30:00Z,28.8425,-94.2433,2.0,32.8831,11111222 
TABS,ioos:station:wmo:42050:1,2014-06-04T09:00:00Z,28.8425,-94.2433,2.0,32.8843,11111222 
TABS,ioos:station:wmo:42050:1,2014-06-04T09:30:00Z,28.8425,-94.2433,2.0,32.8849,11111222 
TABS,ioos:station:wmo:42050:1,2014-06-04T10:00:00Z,28.8425,-94.2433,2.0,32.8885,11111222 
TABS,ioos:station:wmo:42050:1,2014-06-04T10:30:00Z,28.8425,-94.2433,2.0,32.885,11111222 
TABS,ioos:station:wmo:42050:1,2014-06-04T11:00:00Z,28.8425,-94.2433,2.0,32.8853,11111222 
TABS,ioos:station:wmo:42050:1,2014-06-04T11:30:00Z,28.8425,-94.2433,2.0,32.8878,11111222 
TABS,ioos:station:wmo:42050:1,2014-06-04T12:00:00Z,28.8425,-94.2433,2.0,32.8889,11111222 
TABS,ioos:station:wmo:42050:1,2014-06-04T12:30:00Z,28.8425,-94.2433,2.0,32.8877,11111222 
TABS,ioos:station:wmo:42050:1,2014-06-04T13:00:00Z,28.8425,-94.2433,2.0,32.8884,11111222 
TABS,ioos:station:wmo:42050:1,2014-06-04T13:30:00Z,28.8425,-94.2433,2.0,32.8818,11111222 
TABS,ioos:station:wmo:42050:1,2014-06-04T14:00:00Z,28.8425,-94.2433,2.0,32.8812,11111222 
TABS,ioos:station:wmo:42050:1,2014-06-04T14:30:00Z,28.8425,-94.2433,2.0,32.8783,11111222 
TABS,ioos:station:wmo:42050:1,2014-06-04T15:00:00Z,28.8425,-94.2433,2.0,32.8841,11111222 
TABS,ioos:station:wmo:42050:1,2014-06-04T15:30:00Z,28.8425,-94.2433,2.0,32.8856,11111222 
TABS,ioos:station:wmo:42050:1,2014-06-04T16:00:00Z,28.8425,-94.2433,2.0,32.8809,11111222 
TABS,ioos:station:wmo:42050:1,2014-06-04T16:30:00Z,28.8425,-94.2433,2.0,32.878,11111222 
TABS,ioos:station:wmo:42050:1,2014-06-04T17:00:00Z,28.8425,-94.2433,2.0,32.8903,11111222 
TABS,ioos:station:wmo:42050:1,2014-06-04T17:30:00Z,28.8425,-94.2433,2.0,32.8914,11111222 
TABS,ioos:station:wmo:42050:1,2014-06-04T18:00:00Z,28.8425,-94.2433,2.0,32.8982,11111222 
TABS,ioos:station:wmo:42050:1,2014-06-04T18:30:00Z,28.8425,-94.2433,2.0,32.8929,11111222 
TABS,ioos:station:wmo:42050:1,2014-06-04T19:00:00Z,28.8425,-94.2433,2.0,32.8942,11111222 
TABS,ioos:station:wmo:42050:1,2014-06-04T19:30:00Z,28.8425,-94.2433,2.0,32.902,11111222 
TABS,ioos:station:wmo:42050:1,2014-06-04T20:00:00Z,28.8425,-94.2433,2.0,32.894,11111222 
TABS,ioos:station:wmo:42050:1,2014-06-04T20:30:00Z,28.8425,-94.2433,2.0,32.8641,11111222 
TABS,ioos:station:wmo:42050:1,2014-06-04T21:00:00Z,28.8425,-94.2433,2.0,32.8612,11111222 
TABS,ioos:station:wmo:42050:1,2014-06-04T21:30:00Z,28.8425,-94.2433,2.0,32.8528,11111222 
TABS,ioos:station:wmo:42050:1,2014-06-04T22:00:00Z,28.8425,-94.2433,2.0,32.8604,11111222 
TABS,ioos:station:wmo:42050:1,2014-06-04T22:30:00Z,28.8425,-94.2433,2.0,32.8575,11111222 
TABS,ioos:station:wmo:42050:1,2014-06-04T23:00:00Z,28.8425,-94.2433,2.0,32.8563,11111222 
TABS,ioos:station:wmo:42050:1,2014-06-04T23:30:00Z,28.8425,-94.2433,2.0,32.8532,11111222 
TABS,ioos:station:wmo:42050:1,2014-06-05T00:00:00Z,28.8425,-94.2433,2.0,32.856,11111222 
TABS,ioos:station:wmo:42050:1,2014-06-05T00:30:00Z,28.8425,-94.2433,2.0,32.8549,11111222 
TABS,ioos:station:wmo:42050:1,2014-06-05T01:00:00Z,28.8425,-94.2433,2.0,32.8562,11111222 
TABS,ioos:station:wmo:42050:1,2014-06-05T01:30:00Z,28.8425,-94.2433,2.0,32.8561,11111222 
TABS,ioos:station:wmo:42050:1,2014-06-05T02:00:00Z,28.8425,-94.2433,2.0,32.8553,11111222 
TABS,ioos:station:wmo:42050:1,2014-06-05T02:30:00Z,28.8425,-94.2433,2.0,32.8575,11111222 
TABS,ioos:station:wmo:42050:1,2014-06-05T03:00:00Z,28.8425,-94.2433,2.0,32.8564,11111222 
TABS,ioos:station:wmo:42050:1,2014-06-05T03:30:00Z,28.8425,-94.2433,2.0,32.8576,11111222 
TABS,ioos:station:wmo:42050:1,2014-06-05T04:00:00Z,28.8425,-94.2433,2.0,32.8563,11111222 
TABS,ioos:station:wmo:42050:1,2014-06-05T04:30:00Z,28.8425,-94.2433,2.0,32.8542,11111222 
TABS,ioos:station:wmo:42050:1,2014-06-05T05:00:00Z,28.8425,-94.2433,2.0,32.852,11111222 
TABS,ioos:station:wmo:42050:1,2014-06-05T05:30:00Z,28.8425,-94.2433,2.0,32.8508,11111222 
TABS,ioos:station:wmo:42050:1,2014-06-05T06:00:00Z,28.8425,-94.2433,2.0,32.8513,11111222 
TABS,ioos:station:wmo:42050:1,2014-06-05T19:00:00Z,28.8425,-94.2433,2.0,32.8359,11111222 
TABS,ioos:station:wmo:42050:1,2014-06-05T19:30:00Z,28.8425,-94.2433,2.0,32.8465,11111222 
TABS,ioos:station:wmo:42050:1,2014-06-05T20:00:00Z,28.8425,-94.2433,2.0,32.8552,11111222 
TABS,ioos:station:wmo:42050:1,2014-06-05T20:30:00Z,28.8425,-94.2433,2.0,32.8423,11111222 
TABS,ioos:station:wmo:42050:1,2014-06-05T21:00:00Z,28.8425,-94.2433,2.0,32.849,11111222 
TABS,ioos:station:wmo:42050:1,2014-06-05T21:30:00Z,28.8425,-94.2433,2.0,32.8394,11111222 
TABS,ioos:station:wmo:42050:1,2014-06-05T22:00:00Z,28.8425,-94.2433,2.0,32.8437,11111222 
TABS,ioos:station:wmo:42050:1,2014-06-05T22:30:00Z,28.8425,-94.2433,2.0,32.8464,11111222 
TABS,ioos:station:wmo:42050:1,2014-06-05T23:00:00Z,28.8425,-94.2433,2.0,32.8496,11111222 
TABS,ioos:station:wmo:42050:1,2014-06-05T23:30:00Z,28.8425,-94.2433,2.0,32.8447,11111222 
TABS,ioos:station:wmo:42050:1,2014-06-06T00:00:00Z,28.8425,-94.2433,2.0,32.8456,11111222 
TABS,ioos:station:wmo:42050:1,2014-06-06T00:30:00Z,28.8425,-94.2433,2.0,32.85,11111222 
TABS,ioos:station:wmo:42050:1,2014-06-06T01:00:00Z,28.8425,-94.2433,2.0,32.8544,11111222 
TABS,ioos:station:wmo:42050:1,2014-06-06T01:30:00Z,28.8425,-94.2433,2.0,32.8613,11111222 
TABS,ioos:station:wmo:42050:1,2014-06-06T02:00:00Z,28.8425,-94.2433,2.0,32.8611,11111222 
TABS,ioos:station:wmo:42050:1,2014-06-06T02:30:00Z,28.8425,-94.2433,2.0,32.8641,11111222 
TABS,ioos:station:wmo:42050:1,2014-06-06T03:00:00Z,28.8425,-94.2433,2.0,32.8654,11111222 
TABS,ioos:station:wmo:42050:1,2014-06-06T03:30:00Z,28.8425,-94.2433,2.0,32.8681,11111222 
TABS,ioos:station:wmo:42050:1,2014-06-06T04:00:00Z,28.8425,-94.2433,2.0,32.8686,11111222 
TABS,ioos:station:wmo:42050:1,2014-06-06T04:30:00Z,28.8425,-94.2433,2.0,32.8701,11111222 
TABS,ioos:station:wmo:42050:1,2014-06-06T05:00:00Z,28.8425,-94.2433,2.0,32.8709,11111222 
TABS,ioos:station:wmo:42050:1,2014-06-06T05:30:00Z,28.8425,-94.2433,2.0,32.8709,11111222 
TABS,ioos:station:wmo:42050:1,2014-06-06T06:00:00Z,28.8425,-94.2433,2.0,32.87,11111222 
TABS,ioos:station:wmo:42050:1,2014-06-06T06:30:00Z,28.8425,-94.2433,2.0,32.8697,11111222 
TABS,ioos:station:wmo:42050:1,2014-06-06T07:00:00Z,28.8425,-94.2433,2.0,32.8696,11111222 
TABS,ioos:station:wmo:42050:1,2014-06-06T07:30:00Z,28.8425,-94.2433,2.0,32.8712,11111222 
TABS,ioos:station:wmo:42050:1,2014-06-06T08:00:00Z,28.8425,-94.2433,2.0,32.8733,11111222 
TABS,ioos:station:wmo:42050:1,2014-06-06T08:30:00Z,28.8425,-94.2433,2.0,32.8723,11111222 
TABS,ioos:station:wmo:42050:1,2014-06-06T09:00:00Z,28.8425,-94.2433,2.0,32.8775,11111222 
TABS,ioos:station:wmo:42050:1,2014-06-06T09:30:00Z,28.8425,-94.2433,2.0,32.8785,11111222 
TABS,ioos:station:wmo:42050:1,2014-06-06T10:00:00Z,28.8425,-94.2433,2.0,32.8779,11111222 
TABS,ioos:station:wmo:42050:1,2014-06-06T10:30:00Z,28.8425,-94.2433,2.0,32.8765,11111222 
TABS,ioos:station:wmo:42050:1,2014-06-06T11:00:00Z,28.8425,-94.2433,2.0,32.8773,11111222 
TABS,ioos:station:wmo:42050:1,2014-06-06T11:30:00Z,28.8425,-94.2433,2.0,32.8756,11111222 
TABS,ioos:station:wmo:42050:1,2014-06-06T12:00:00Z,28.8425,-94.2433,2.0,32.8729,11111222 
TABS,ioos:station:wmo:42050:1,2014-06-06T12:30:00Z,28.8425,-94.2433,2.0,32.8733,11111222 
TABS,ioos:station:wmo:42050:1,2014-06-06T13:00:00Z,28.8425,-94.2433,2.0,32.872,11111222 
TABS,ioos:station:wmo:42050:1,2014-06-06T13:30:00Z,28.8425,-94.2433,2.0,32.8719,11111222 
TABS,ioos:station:wmo:42050:1,2014-06-06T14:00:00Z,28.8425,-94.2433,2.0,32.8718,11111222 
TABS,ioos:station:wmo:42050:1,2014-06-06T14:30:00Z,28.8425,-94.2433,2.0,32.8717,11111222 
TABS,ioos:station:wmo:42050:1,2014-06-06T15:00:00Z,28.8425,-94.2433,2.0,32.8715,11111222 
TABS,ioos:station:wmo:42050:1,2014-06-06T15:30:00Z,28.8425,-94.2433,2.0,32.8733,11111222 
TABS,ioos:station:wmo:42050:1,2014-06-06T16:00:00Z,28.8425,-94.2433,2.0,32.8716,11111222 
TABS,ioos:station:wmo:42050:1,2014-06-06T16:30:00Z,28.8425,-94.2433,2.0,32.879,11111222 
TABS,ioos:station:wmo:42050:1,2014-06-06T17:00:00Z,28.8425,-94.2433,2.0,32.8788,11111222 
TABS,ioos:station:wmo:42050:1,2014-06-06T17:30:00Z,28.8425,-94.2433,2.0,32.8851,11111222 
TABS,ioos:station:wmo:42050:1,2014-06-06T18:00:00Z,28.8425,-94.2433,2.0,32.89,11111222 
TABS,ioos:station:wmo:42050:1,2014-06-06T18:30:00Z,28.8425,-94.2433,2.0,32.8872,11111222 
TABS,ioos:station:wmo:42050:1,2014-06-06T19:00:00Z,28.8425,-94.2433,2.0,32.9005,11111222 
TABS,ioos:station:wmo:42050:1,2014-06-06T19:30:00Z,28.8425,-94.2433,2.0,32.896,11111222 
TABS,ioos:station:wmo:42050:1,2014-06-06T20:00:00Z,28.8425,-94.2433,2.0,32.891,11111222 
TABS,ioos:station:wmo:42050:1,2014-06-06T20:30:00Z,28.8425,-94.2433,2.0,32.898,11111222 
TABS,ioos:station:wmo:42050:1,2014-06-06T21:00:00Z,28.8425,-94.2433,2.0,32.9368,11111222 
TABS,ioos:station:wmo:42050:1,2014-06-06T21:30:00Z,28.8425,-94.2433,2.0,32.9669,11111222 
TABS,ioos:station:wmo:42050:1,2014-06-06T22:00:00Z,28.8425,-94.2433,2.0,32.8205,11111222 
TABS,ioos:station:wmo:42050:1,2014-06-06T22:30:00Z,28.8425,-94.2433,2.0,32.8191,11111222 
TABS,ioos:station:wmo:42050:1,2014-06-06T23:00:00Z,28.8425,-94.2433,2.0,32.8417,11111222 
TABS,ioos:station:wmo:42050:1,2014-06-06T23:30:00Z,28.8425,-94.2433,2.0,32.7993,11111222 
TABS,ioos:station:wmo:42050:1,2014-06-07T00:00:00Z,28.8425,-94.2433,2.0,32.836,11111222 
TABS,ioos:station:wmo:42050:1,2014-06-07T00:30:00Z,28.8425,-94.2433,2.0,32.8255,11111222 
TABS,ioos:station:wmo:42050:1,2014-06-07T01:00:00Z,28.8425,-94.2433,2.0,32.7763,11111222 
TABS,ioos:station:wmo:42050:1,2014-06-07T01:30:00Z,28.8425,-94.2433,2.0,32.798,11111222 
TABS,ioos:station:wmo:42050:1,2014-06-07T02:00:00Z,28.8425,-94.2433,2.0,32.7991,11111222 
TABS,ioos:station:wmo:42050:1,2014-06-07T02:30:00Z,28.8425,-94.2433,2.0,32.8,11111222 
TABS,ioos:station:wmo:42050:1,2014-06-07T03:00:00Z,28.8425,-94.2433,2.0,32.7749,11111222 